Theta_e
305 307 312 315 318 320 321 321 322 324 325 325 325 326 326 327 327 326 328 329 328 327 327 326 326 323 322 324 324 324 328 330 331 331 331 331 331 331 331 329 328 327 327 327 327 324 324 319 316 313 313 314 313 313 312 313 314 313 311 310 310 310 309 306 305 306 305 304 303 302 303 301 301 301 302 302 302 302 302 302 302 302 302 302 302
309 308 308 311 314 317 318 319 318 320 322 324 324 325 325 325 326 327 327 328 328 328 327 326 326 327 326 326 323 322 324 328 329 330 331 332 332 332 332 331 330 329 327 328 327 326 322 318 317 314 312 313 313 314 314 312 313 313 312 310 310 310 309 306 305 307 302 303 304 303 302 303 303 301 299 300 300 301 301 301 301 302 302 302 302
308 307 308 308 311 314 316 316 318 320 321 322 323 324 324 324 324 326 326 326 327 327 327 326 325 325 326 323 324 321 321 322 325 327 331 331 330 329 329 330 331 330 329 326 326 323 320 317 317 316 315 314 313 313 313 312 311 311 311 310 307 307 308 305 305 307 304 303 304 302 301 301 302 299 300 300 300 300 299 299 301 301 302 302 302
307 306 306 306 307 309 310 312 315 317 317 319 321 323 325 324 324 325 325 326 326 325 324 325 325 324 323 324 325 324 322 321 322 324 325 324 327 329 328 329 329 328 327 324 324 322 320 319 320 319 318 315 314 312 310 310 309 308 309 309 309 306 305 305 305 305 306 304 300 301 298 297 298 301 303 303 302 301 299 300 300 301 302 302 301
306 306 305 305 305 305 306 307 309 313 315 317 319 321 324 324 324 324 324 324 324 323 323 324 324 322 322 321 321 320 320 322 321 321 321 321 321 327 327 328 327 325 326 326 325 325 324 323 321 320 318 316 314 313 312 311 310 310 309 308 308 308 307 305 303 304 305 308 306 298 296 295 297 301 303 303 300 299 300 300 300 301 301 302 301
306 306 306 305 305 305 305 305 305 307 310 314 318 320 321 322 323 323 323 323 323 323 323 323 322 321 320 319 316 315 314 317 320 319 317 318 319 320 326 328 326 325 324 324 325 323 323 323 322 321 319 317 315 313 313 312 310 310 309 309 308 308 308 307 305 302 303 304 306 307 306 304 301 300 302 300 300 303 302 301 301 301 301 301 301
306 305 304 303 304 304 304 305 305 305 307 309 314 317 318 320 321 323 322 322 323 323 323 321 321 320 319 319 317 317 314 315 315 319 321 320 322 322 321 321 325 325 325 325 325 322 323 323 323 323 322 319 315 314 313 312 312 310 310 309 309 308 307 306 307 304 300 301 303 304 305 302 300 300 300 300 298 298 300 301 302 302 302 302 301
305 303 302 303 304 304 304 304 305 306 306 309 312 315 317 318 320 321 321 321 322 322 322 321 321 319 318 318 318 316 315 313 315 316 318 320 321 320 320 319 319 323 323 323 326 325 323 322 321 319 317 316 313 313 313 312 312 311 310 310 309 308 307 306 306 307 302 302 300 301 301 303 301 298 297 297 297 294 298 300 301 301 300 300 301
303 304 303 303 304 303 303 303 304 305 306 308 312 313 316 317 319 319 320 320 320 320 321 319 319 319 318 318 315 315 316 316 316 317 317 319 318 320 322 319 318 321 322 322 323 322 321 322 323 321 319 318 315 314 313 313 312 311 310 309 308 308 307 307 307 306 305 305 300 299 300 300 301 299 298 295 294 294 296 298 300 298 296 298 299
300 303 302 302 302 302 302 303 303 304 306 308 309 311 313 315 318 318 317 318 319 319 319 317 317 317 317 316 315 315 315 316 314 316 316 316 316 316 318 318 318 318 319 320 320 321 320 319 319 319 319 318 313 314 313 312 311 310 310 309 308 307 307 306 306 306 306 306 306 302 298 297 298 298 297 295 294 295 294 296 298 298 298 300 297
302 300 300 303 303 302 304 303 303 307 307 308 309 311 312 315 316 316 316 317 317 317 317 316 316 317 317 316 316 315 314 315 313 314 315 315 317 318 317 317 317 318 318 319 320 320 320 319 319 319 319 316 312 313 312 311 311 310 310 309 308 307 306 306 305 305 305 304 304 303 302 301 300 298 298 297 297 292 290 292 294 296 296 297 300
303 300 298 302 302 302 303 304 306 307 307 307 308 310 312 314 315 315 315 316 316 316 315 315 315 315 315 316 316 316 315 315 315 314 314 314 314 314 316 317 316 315 315 314 315 315 316 315 317 318 317 316 314 313 313 312 311 310 309 308 308 307 307 306 305 304 304 304 304 304 304 304 303 302 302 302 300 298 298 297 297 297 296 299 300
302 300 299 301 300 301 301 303 305 306 308 309 310 311 312 313 314 314 314 314 314 314 314 314 314 315 315 316 315 316 316 315 315 314 313 313 314 312 312 313 312 312 312 312 310 313 314 313 313 313 312 312 311 310 311 312 311 310 309 308 308 307 306 305 304 304 304 304 304 304 304 304 303 304 303 302 301 301 299 297 296 295 295 297 299
301 301 302 301 301 301 303 304 305 306 307 309 309 310 311 313 313 313 312 313 312 313 315 315 316 315 314 316 316 315 315 315 314 314 314 314 314 313 313 312 312 311 310 310 311 311 310 310 310 311 310 311 310 309 308 307 308 308 308 308 307 307 306 305 305 304 304 303 304 303 303 303 303 304 303 302 301 299 298 297 296 293 293 295 297
301 302 303 303 304 303 304 305 305 306 307 308 309 310 310 311 312 311 311 311 312 313 316 317 317 316 314 315 315 315 314 314 314 314 314 313 313 313 313 310 308 308 308 309 308 308 308 308 308 308 308 307 309 309 309 308 306 306 305 306 306 306 305 304 303 303 303 302 302 303 302 302 302 303 302 302 302 301 300 299 296 294 294 295 295
302 302 302 303 304 304 305 306 306 307 307 308 309 310 310 311 311 311 311 311 312 312 314 316 316 315 313 314 314 314 313 313 312 311 310 310 309 310 308 308 307 306 306 306 306 306 306 307 307 307 307 307 306 306 308 308 306 304 303 301 300 303 305 304 303 302 302 302 302 302 301 301 302 303 302 302 302 302 301 300 299 297 293 291 293
302 303 302 304 304 305 306 306 307 307 308 308 309 310 311 311 311 310 311 311 312 312 313 314 314 313 313 313 312 312 312 311 311 309 308 307 307 306 306 306 306 305 306 305 305 304 304 304 305 304 305 306 306 305 304 304 306 306 304 301 302 304 305 304 303 302 302 302 301 301 301 301 302 302 301 301 301 301 301 300 300 298 297 293 291
303 304 304 305 305 305 305 305 306 307 308 308 309 310 311 312 311 311 310 311 311 312 313 313 313 312 312 312 310 310 310 309 308 309 307 307 304 304 304 306 304 304 306 305 303 303 303 301 303 304 304 303 303 303 302 302 302 301 301 301 302 302 301 300 301 301 302 302 301 301 300 299 300 299 300 300 299 300 298 297 299 299 297 295 293
302 303 303 303 303 304 304 304 305 307 307 308 309 310 310 310 311 311 311 311 311 312 311 311 311 311 311 310 309 308 308 307 306 308 307 306 305 303 303 303 304 303 304 302 301 300 299 301 300 301 301 301 300 299 299 298 298 297 298 300 302 301 301 300 300 301 302 301 299 298 298 298 299 299 298 297 295 295 297 296 297 297 294 296 295
302 302 302 303 302 302 302 302 303 305 305 306 306 307 309 309 309 310 309 309 309 308 308 309 308 309 309 307 307 306 306 306 305 306 306 304 304 304 303 302 303 303 302 300 297 297 297 298 300 300 300 299 299 299 298 297 297 298 299 300 300 301 301 300 299 298 301 300 298 298 297 296 297 294 294 293 294 293 293 295 294 294 294 292 294
302 302 302 302 301 301 301 300 300 300 300 302 304 305 305 306 307 308 308 307 307 306 306 306 306 306 306 306 306 305 305 304 304 304 303 303 302 302 302 301 299 298 298 297 296 296 297 297 298 298 298 297 297 299 299 298 299 300 300 301 300 300 300 298 298 298 297 297 297 297 296 295 295 294 293 292 292 293 292 292 291 292 292 291 291
302 302 301 301 300 300 298 298 296 298 299 300 303 304 303 304 304 305 305 306 305 305 305 305 305 305 304 304 304 303 303 303 302 302 302 301 299 298 297 297 296 296 296 296 295 295 296 297 297 297 298 298 299 302 300 299 299 299 299 301 301 299 298 298 297 297 296 297 295 296 295 294 293 293 294 293 294 294 294 293 293 293 293 293 293
302 302 301 300 299 298 298 298 298 298 299 298 299 302 303 303 303 303 304 304 305 304 304 304 304 304 303 303 302 300 300 299 300 298 298 299 297 296 296 296 295 295 295 295 294 294 295 295 296 296 298 297 298 297 297 298 298 298 297 297 298 298 297 297 296 296 296 295 295 294 294 294 296 294 293 294 294 293 293 292 292 293 293 293 293
301 300 301 300 297 295 297 297 299 299 298 300 300 301 301 301 302 302 303 303 303 303 303 303 302 301 301 300 299 298 298 298 298 298 297 296 297 296 294 294 294 295 296 294 293 293 293 292 294 295 296 296 295 296 296 297 298 297 296 297 297 297 297 296 295 296 295 294 295 294 293 292 291 292 292 292 293 292 293 292 292 292 292 293 293
299 300 300 298 296 297 298 298 298 298 297 298 300 300 300 301 301 301 301 300 300 300 300 300 299 299 298 298 296 296 297 297 297 297 295 295 294 294 293 293 294 294 294 293 292 291 290 292 294 294 295 295 295 296 297 297 297 296 296 296 296 296 295 295 295 295 294 295 295 294 294 293 292 292 292 291 291 291 292 293 292 293 292 293 293
298 299 299 299 298 296 296 297 298 298 298 298 298 298 298 298 299 297 298 297 298 298 299 299 298 298 296 295 295 296 296 296 295 295 294 294 294 294 293 292 293 294 292 292 291 290 291 290 291 292 293 293 293 294 295 295 295 296 296 296 295 295 295 294 294 294 294 294 293 294 293 292 292 292 292 291 292 291 292 292 292 293 293 293 293
298 298 298 297 296 297 298 297 298 296 295 295 296 297 295 296 296 295 296 296 297 297 298 298 297 296 295 294 294 294 294 294 294 293 293 293 292 292 292 292 291 291 291 290 288 289 289 289 289 289 289 290 291 291 291 293 293 292 292 292 291 290 291 291 292 290 290 290 291 291 291 290 290 289 290 291 292 292 292 291 292 292 293 292 291
297 297 298 299 299 297 297 297 296 296 295 294 294 294 295 295 295 294 295 296 297 296 296 296 295 294 294 293 292 291 292 292 292 292 292 291 291 291 291 291 290 290 289 289 289 289 288 288 288 288 289 288 287 287 288 288 287 287 287 287 288 287 287 287 287 287 288 288 289 289 289 290 290 290 289 290 289 290 291 290 292 291 291 291 291
297 299 299 299 298 298 297 296 295 294 294 293 294 293 293 293 293 292 294 295 295 295 295 294 293 293 292 292 291 290 291 291 291 291 291 291 290 290 289 289 289 290 291 289 289 289 288 288 287 288 288 288 290 290 289 286 286 286 285 286 286 286 285 286 286 285 286 286 287 288 288 289 289 289 290 290 291 291 290 289 290 290 290 290 290
297 298 299 299 299 297 296 296 294 295 295 295 295 294 294 294 293 293 293 292 292 292 293 293 292 291 291 290 289 289 289 289 289 289 289 289 289 289 289 288 288 288 288 288 287 288 288 287 288 287 287 289 289 290 288 291 291 288 286 286 287 285 285 285 285 285 286 286 287 287 289 289 289 289 289 290 291 291 291 290 289 288 289 289 289
297 297 297 298 297 296 295 296 296 296 296 296 296 294 294 293 292 292 291 289 290 291 291 291 290 289 289 289 289 289 288 288 288 288 288 288 288 288 288 288 288 287 287 287 287 287 287 287 287 287 288 289 289 289 291 292 293 293 288 285 285 284 284 284 284 284 286 287 287 286 286 287 288 288 288 290 291 291 291 291 291 291 290 289 288
297 297 296 295 296 297 298 298 297 297 296 296 295 294 292 292 291 290 290 289 289 289 290 289 288 288 288 288 288 288 288 287 287 287 287 287 288 288 287 287 287 287 286 286 287 287 286 286 288 286 287 287 286 290 292 292 292 292 291 285 284 284 285 284 283 284 286 286 286 287 286 289 288 288 288 288 289 290 291 291 291 291 291 291 291
297 297 297 296 296 298 299 299 298 297 296 295 294 292 291 291 290 289 289 289 289 288 288 288 288 288 288 288 287 287 287 287 286 286 287 287 287 287 286 286 286 286 286 286 285 286 285 285 285 284 284 284 284 291 291 291 291 291 291 288 283 283 283 284 285 286 286 287 287 286 286 287 289 287 287 287 287 287 288 289 290 290 289 290 291
298 298 297 297 298 298 298 299 298 295 294 292 292 292 291 290 289 288 289 288 288 288 287 287 286 286 287 287 287 286 286 286 286 286 286 286 286 285 285 285 285 285 285 284 284 284 284 283 283 283 283 283 283 289 290 290 290 290 290 290 285 285 285 286 287 287 288 287 287 287 287 286 285 285 286 286 286 286 286 286 286 286 287 288 289
298 298 298 298 298 298 297 294 293 293 292 291 290 290 289 289 289 289 288 288 287 287 287 286 286 286 286 286 286 286 285 285 285 285 285 285 284 284 284 284 284 283 283 282 282 282 283 282 283 284 283 282 285 289 290 289 289 289 289 289 287 287 287 286 286 284 284 285 286 287 287 287 286 286 286 287 287 287 286 286 286 286 287 288 288
297 297 298 298 297 295 295 292 289 290 290 290 289 289 289 288 288 289 288 287 287 287 286 286 286 286 286 285 285 285 285 284 284 284 284 284 283 283 283 282 282 282 280 281 281 282 282 283 285 285 284 283 283 289 289 289 288 289 288 285 283 284 283 283 284 284 284 285 283 284 284 286 286 287 287 289 289 289 287 286 286 286 287 287 287
296 295 295 295 295 294 294 290 290 290 290 289 289 289 288 288 288 287 287 287 287 286 285 285 285 285 285 285 285 284 284 283 283 283 283 282 282 282 281 280 281 281 280 281 280 281 283 284 284 284 284 284 284 287 288 288 288 289 286 279 281 280 280 280 281 281 283 283 283 283 283 284 284 284 287 290 290 288 285 285 285 285 285 285 285
290 290 290 290 290 289 290 291 290 289 289 289 289 289 288 287 287 287 286 286 286 285 285 284 284 284 284 284 283 283 283 283 282 282 282 281 281 281 280 279 280 280 280 280 281 282 282 282 282 283 284 284 285 285 287 287 287 288 286 282 282 279 278 279 281 281 283 282 283 284 284 283 283 283 288 289 288 287 284 284 284 284 284 284 285
289 289 289 288 288 289 289 288 289 288 287 288 288 288 288 287 286 286 286 285 285 284 284 284 283 283 282 282 282 282 282 282 281 280 281 280 280 280 280 279 280 279 280 281 282 282 282 282 283 285 285 284 284 285 287 287 287 287 286 283 282 278 278 279 281 281 281 283 283 284 284 286 286 286 288 287 287 286 285 284 284 284 283 283 284
285 286 287 287 287 288 287 288 288 287 286 286 286 286 286 285 285 285 285 284 283 283 283 282 282 281 281 281 281 281 280 280 280 279 279 279 279 279 279 278 278 278 279 281 282 283 284 284 285 285 284 284 284 284 285 286 287 287 287 283 281 279 281 281 282 282 282 282 282 282 283 285 286 286 287 287 287 287 285 285 284 283 282 282 285
284 286 287 287 285 287 287 286 285 285 286 286 286 286 285 284 284 283 282 281 281 281 281 281 280 280 280 279 279 279 279 278 278 278 278 279 278 278 278 278 279 280 281 282 284 284 284 284 285 284 285 284 284 283 284 286 286 286 286 284 281 282 282 282 281 281 281 280 280 280 280 284 285 286 286 286 286 286 286 285 284 283 283 285 286
283 284 285 285 284 284 283 283 283 284 285 285 285 285 283 283 282 280 278 279 280 280 280 279 279 278 278 277 277 277 277 277 276 277 277 277 277 278 279 280 281 282 282 283 284 284 284 284 285 284 284 284 284 284 282 285 285 284 284 285 283 282 283 281 280 280 279 278 279 279 280 283 285 285 285 285 286 286 286 284 284 286 287 287 285
282 282 283 284 283 282 282 281 281 282 284 284 285 283 282 281 279 276 277 278 279 278 278 278 277 276 276 275 275 275 275 276 276 276 277 278 279 279 280 281 281 282 282 283 283 283 283 283 284 284 284 284 283 284 284 283 283 283 284 284 284 283 284 282 280 278 278 278 279 280 281 283 284 284 285 285 286 286 285 284 286 286 287 287 286
281 281 282 283 282 281 281 280 280 280 281 283 284 282 281 278 275 275 276 277 277 277 276 275 275 274 274 274 274 274 274 275 276 277 278 279 279 279 280 281 281 282 282 282 282 282 282 282 282 282 283 282 283 282 283 282 281 282 283 283 283 283 283 281 281 279 278 279 279 280 282 284 284 284 284 285 285 285 284 286 286 287 287 286 284
282 281 281 281 281 280 279 278 277 277 278 278 280 280 277 274 273 274 274 275 275 275 274 273 273 273 273 273 273 273 274 275 276 277 278 278 279 280 280 281 280 281 281 281 281 281 281 281 281 281 281 281 281 281 281 281 281 281 282 282 282 282 282 282 279 279 280 280 281 283 283 283 283 284 284 284 283 283 285 285 286 286 284 284 284
281 281 281 280 280 279 278 275 274 274 274 275 276 278 275 271 272 272 273 273 273 273 273 272 272 272 272 273 273 273 274 274 275 277 277 278 278 279 279 280 280 280 280 280 279 280 280 280 280 280 279 280 280 280 280 279 280 280 280 280 280 280 280 280 280 279 281 282 282 282 282 283 282 282 282 281 281 282 284 285 285 284 283 283 283
280 281 280 280 279 277 276 274 272 272 271 271 270 270 271 270 270 271 272 272 272 272 272 272 271 272 272 272 273 273 274 274 275 277 277 277 278 278 279 279 279 279 279 279 279 279 279 279 278 278 279 279 278 278 278 277 278 278 278 278 278 278 279 279 279 279 280 280 280 280 281 282 282 283 283 283 283 283 283 283 283 282 282 283 283
280 280 279 279 278 277 275 273 271 271 270 269 268 268 268 268 268 269 270 271 271 272 271 271 271 272 272 272 273 274 274 274 275 275 276 276 277 278 278 278 277 278 277 278 278 278 278 278 277 278 278 277 277 276 277 277 277 277 277 277 277 277 277 278 278 278 279 280 279 280 280 280 280 280 280 280 281 282 282 282 281 281 282 283 283
279 278 278 278 277 275 274 272 270 269 268 267 266 266 266 266 267 266 268 270 271 270 270 270 270 271 271 273 273 273 274 274 274 274 274 275 274 276 277 278 278 278 277 277 277 278 278 278 278 277 276 275 275 275 276 279 278 278 277 276 276 277 278 278 279 281 280 279 277 277 277 277 277 277 277 277 278 278 278 278 278 279 280 281 280
278 278 277 277 276 275 272 270 269 268 267 266 265 265 265 265 265 265 267 269 269 269 269 269 270 270 271 271 272 272 273 273 273 273 273 274 277 277 278 276 276 279 280 280 280 277 278 277 276 276 277 275 274 276 279 278 278 278 278 279 279 279 279 279 280 281 279 276 275 274 275 274 274 274 273 274 274 274 274 274 275 276 276 276 277
278 277 276 275 275 273 271 269 268 267 266 265 264 264 264 264 265 265 266 268 269 269 269 268 269 269 270 271 271 271 272 272 272 272 273 274 274 276 278 278 278 278 279 279 279 279 279 279 277 274 276 279 278 278 277 277 277 277 278 278 278 278 279 279 280 278 274 273 273 272 271 271 271 272 272 272 272 271 271 271 272 273 274 275 277
Wind_Speed
6 9 11 11 10 10 9 8 8 8 8 9 9 9 9 9 10 11 9 8 8 8 7 8 8 6 4 6 5 5 6 6 5 5 5 5 5 5 4 4 4 5 4 4 5 5 5 3 5 4 4 5 6 7 5 5 6 6 5 4 5 4 3 3 3 4 1 3 3 5 5 4 7 5 6 6 6 5 5 6 6 6 6 6 6
5 5 6 7 8 8 8 8 8 10 8 9 11 11 10 9 10 10 9 8 9 9 8 7 6 6 7 7 5 6 7 7 6 5 6 6 7 7 6 5 5 5 6 6 6 6 5 5 5 5 5 5 5 3 3 4 4 4 4 3 1 5 4 3 3 4 1 5 5 5 3 5 8 7 7 8 8 7 7 6 7 8 8 7 4
6 7 6 8 9 9 9 8 9 11 11 12 11 10 10 10 9 9 10 10 9 9 8 8 6 6 7 5 8 3 2 5 6 6 7 7 7 7 6 6 6 6 6 7 7 6 6 6 6 5 5 4 3 4 4 3 3 3 3 4 2 0 1 1 5 6 5 2 1 3 6 5 1 2 5 9 8 8 6 7 9 8 10 7 5
9 9 9 8 9 9 8 8 9 8 8 8 9 11 10 10 9 10 10 10 9 8 8 7 7 6 5 5 6 5 4 3 3 2 1 5 8 8 6 5 5 5 4 4 4 5 5 5 4 5 5 5 5 5 4 4 3 3 3 4 3 4 3 6 4 5 4 4 3 4 2 0 8 6 4 5 8 10 9 11 8 9 9 7 5
10 9 8 9 8 9 10 10 8 9 9 10 11 11 9 12 11 11 10 10 9 8 8 7 7 6 5 5 5 5 4 4 4 2 2 1 2 6 6 5 5 4 4 4 5 5 5 5 5 5 5 5 5 5 5 7 7 7 7 6 7 7 6 4 3 5 6 6 6 0 2 1 6 5 4 6 4 3 7 9 7 8 8 7 6
11 11 12 12 12 9 7 7 8 8 9 9 9 10 8 9 9 9 7 8 9 9 8 8 8 8 7 7 7 4 5 6 8 7 5 4 4 3 6 7 6 5 4 5 5 5 5 6 6 6 6 5 6 6 6 4 4 5 6 6 6 5 7 5 5 2 6 7 7 7 6 7 3 2 4 6 1 4 4 5 7 7 7 7 7
3 4 7 8 8 8 8 9 10 10 9 6 6 7 7 8 8 9 8 8 8 9 9 8 7 7 8 7 6 7 7 4 4 5 6 4 3 2 2 3 5 6 6 5 5 5 5 5 6 7 7 6 6 6 5 5 5 5 4 5 6 6 5 7 8 4 0 5 6 9 9 6 2 4 8 4 9 2 2 3 5 6 7 7 8
8 7 6 6 9 12 13 12 11 11 7 7 6 6 8 8 9 9 7 8 7 9 10 8 9 8 7 7 7 6 6 5 5 4 4 3 4 3 1 2 3 5 6 5 5 5 6 5 3 3 3 3 4 5 6 5 4 3 6 7 6 6 7 8 8 5 5 4 6 8 8 8 4 4 3 6 6 9 9 3 4 5 4 7 8
9 9 9 8 8 7 7 8 7 6 7 8 8 7 6 7 8 7 8 8 7 9 10 8 8 8 8 8 6 5 6 5 4 5 5 4 4 5 6 4 3 3 3 3 3 3 4 5 5 5 5 5 5 5 5 6 7 7 6 6 6 6 5 5 4 6 5 7 3 5 6 7 6 5 4 3 6 8 12 8 11 1 1 5 7
5 5 6 6 6 5 5 5 6 6 5 6 5 5 6 6 8 9 7 7 8 8 9 8 7 8 9 8 8 6 6 6 5 7 6 6 5 4 4 5 4 3 1 1 1 1 3 3 3 3 4 4 4 5 5 5 4 4 5 6 5 6 4 5 6 5 5 6 5 2 3 2 3 4 4 5 5 7 12 8 9 10 10 7 5
2 2 2 3 2 4 4 6 5 5 5 6 6 6 6 7 8 9 8 8 8 9 9 9 7 8 8 8 8 8 7 7 6 6 6 4 6 5 5 4 4 3 2 3 4 4 4 4 4 4 4 3 3 3 3 4 5 4 4 3 4 5 5 5 5 5 3 3 5 5 6 6 7 7 6 6 7 5 4 8 9 8 10 13 8
5 4 4 4 3 2 4 5 5 5 5 6 5 5 6 7 8 9 7 8 8 8 9 8 7 7 6 8 8 8 7 7 7 6 7 6 5 5 4 4 4 5 6 6 6 5 5 5 4 4 4 4 4 4 4 3 4 3 3 4 4 4 4 5 5 5 4 5 5 5 6 6 7 7 6 6 6 7 8 11 9 4 7 8 6
2 5 5 5 5 5 5 5 6 6 7 6 7 6 6 7 9 10 8 8 8 8 9 8 7 7 7 8 7 7 7 6 7 6 6 6 6 5 5 6 6 6 6 6 5 7 6 6 5 6 6 6 5 5 5 5 5 5 5 5 5 4 5 5 4 4 5 6 6 5 5 6 7 6 5 6 5 5 6 10 6 3 9 9 6
4 4 5 5 6 6 6 6 7 6 6 7 6 7 6 7 8 9 8 8 8 8 9 9 8 6 6 7 7 6 8 7 7 7 7 7 7 7 7 7 7 7 6 6 6 6 5 5 5 5 5 6 6 6 5 5 5 6 6 5 4 4 3 4 5 4 3 3 3 5 5 6 7 6 6 5 6 6 7 8 9 5 5 11 7
5 4 5 6 7 8 7 6 6 7 7 7 7 6 6 7 8 9 9 9 9 9 9 10 9 8 6 7 7 6 7 7 7 7 6 6 7 8 7 5 5 4 5 4 4 4 3 2 1 1 1 4 5 4 5 5 5 5 4 5 6 6 6 5 4 4 5 5 5 5 6 6 6 6 5 6 5 6 7 7 7 12 10 7 10
5 5 5 5 5 6 6 6 7 7 7 7 7 7 7 8 7 9 10 10 11 10 9 10 9 8 6 8 7 7 6 6 6 5 4 4 4 5 4 3 3 3 3 4 3 4 3 2 1 0 0 0 2 4 5 5 5 5 4 3 4 3 4 4 4 4 5 6 6 5 5 6 6 7 6 6 6 6 6 6 7 8 10 13 8
5 5 5 5 5 5 5 6 6 7 7 7 7 7 8 8 9 9 9 8 10 10 10 9 9 8 8 7 6 7 7 6 6 5 4 4 4 3 4 3 3 3 3 4 4 3 3 2 1 1 1 0 0 1 2 4 5 5 5 4 4 4 4 4 3 4 4 5 5 6 6 5 5 6 6 6 7 6 6 7 6 7 8 10 11
5 5 5 6 5 5 5 5 5 6 7 7 7 7 7 7 9 10 9 11 9 9 10 9 10 9 8 8 6 6 6 5 5 6 5 5 4 3 3 4 4 3 4 3 3 3 2 3 1 0 0 1 1 1 2 2 2 2 3 4 4 3 2 1 2 2 3 4 5 5 5 6 6 6 6 6 5 6 6 5 6 7 5 9 9
5 5 6 6 6 5 5 6 6 6 7 7 7 8 7 6 8 9 10 9 9 7 7 6 7 6 7 7 7 6 5 5 4 5 5 5 5 4 4 4 4 4 5 4 3 2 2 1 1 0 0 1 2 3 3 3 2 2 2 1 1 2 1 1 1 2 4 4 4 5 5 5 6 6 6 5 4 4 5 5 6 5 5 8 10
6 5 5 5 5 6 6 6 7 7 7 7 6 6 7 6 8 8 6 7 7 7 7 7 6 7 6 6 5 5 5 5 5 6 6 5 5 4 4 4 4 5 4 4 4 4 3 1 1 1 1 2 2 3 3 3 3 2 2 2 2 2 1 1 2 2 3 4 5 5 5 5 6 5 5 5 5 5 5 5 5 5 6 6 7
6 5 6 6 6 6 6 5 5 5 5 5 6 6 6 5 7 8 10 9 8 7 7 6 6 7 7 7 7 6 6 6 5 5 5 4 4 4 4 4 4 4 4 5 4 4 2 2 1 1 1 2 2 1 2 2 2 2 2 1 1 1 1 3 3 4 3 4 5 6 5 5 5 5 5 5 5 5 5 5 4 5 6 5 6
5 5 6 6 6 6 5 5 5 5 5 5 5 5 5 5 6 7 8 7 8 7 7 7 6 6 7 7 7 5 6 6 6 5 5 5 4 4 4 4 5 4 4 4 4 4 3 2 2 2 2 2 2 1 1 2 1 1 1 0 1 1 2 3 3 3 3 4 3 6 6 5 4 6 6 6 6 6 6 6 6 6 7 7 6
6 5 5 5 5 6 6 6 6 6 5 5 5 5 6 6 6 6 7 7 7 7 6 7 7 7 7 7 7 6 6 6 6 5 5 5 5 4 4 4 4 4 4 4 4 4 3 3 3 3 3 3 3 3 3 3 2 1 1 2 2 1 2 3 3 3 3 3 4 5 6 5 5 6 6 6 6 6 5 6 7 6 8 8 7
4 4 4 5 5 5 5 5 6 6 6 6 5 5 5 5 5 6 8 8 7 7 7 7 7 7 7 7 7 6 7 6 7 6 6 5 5 4 4 4 4 5 6 4 4 3 3 4 4 3 3 3 3 3 3 3 3 2 2 2 2 2 3 3 3 3 3 3 4 4 5 4 4 5 6 5 6 5 6 5 6 6 7 8 7
5 5 5 5 5 6 7 6 6 5 5 5 6 6 6 6 6 6 6 5 6 5 7 6 7 8 7 8 6 6 7 7 6 6 6 6 6 5 4 5 5 6 5 5 4 4 4 4 4 3 2 2 2 2 1 0 1 2 2 2 2 2 2 2 3 3 3 3 4 4 5 4 4 5 5 5 4 6 6 6 7 7 7 7 7
5 5 5 7 7 5 5 6 6 6 7 6 5 5 5 5 6 5 5 5 5 5 6 7 7 8 7 7 6 6 7 7 7 7 7 6 6 5 5 4 5 6 5 4 4 3 3 4 3 2 1 2 3 3 2 3 1 1 1 2 3 3 3 3 3 3 3 3 4 5 4 5 5 5 6 6 5 5 5 6 7 7 7 7 8
6 6 5 3 4 8 7 5 5 5 5 5 5 6 5 5 5 5 5 6 5 6 6 7 7 7 7 6 6 6 6 7 7 7 6 6 6 5 5 5 5 6 6 5 4 4 4 4 4 4 3 3 2 2 2 1 1 1 0 0 1 1 2 2 2 3 4 4 5 5 5 5 5 5 6 7 6 6 6 6 7 7 7 7 7
5 5 6 9 9 6 7 7 6 6 5 5 5 5 5 6 6 5 5 6 5 6 6 7 7 7 6 6 5 5 5 6 6 6 6 6 5 5 5 6 6 6 5 5 4 4 4 4 4 4 3 3 3 3 2 2 3 3 3 2 2 2 3 3 2 3 4 4 4 5 5 5 5 6 6 7 5 7 6 6 6 6 6 7 8
6 8 8 9 10 10 8 6 6 5 6 5 5 5 5 4 4 4 5 6 6 6 6 7 7 7 6 6 5 4 5 6 6 6 6 6 6 6 6 6 6 6 5 5 5 4 4 4 3 3 2 2 2 1 2 3 2 2 3 3 3 3 3 4 4 4 4 4 5 5 5 5 6 9 10 9 9 8 6 7 7 5 7 7 8
8 9 10 10 9 6 6 6 6 7 7 7 7 7 6 6 6 5 5 4 6 6 7 7 7 7 7 6 6 5 5 6 6 7 6 6 6 6 7 7 6 5 5 5 5 5 4 4 4 2 2 2 1 3 4 6 2 0 1 2 3 3 3 3 4 4 5 5 5 4 6 10 12 12 12 13 13 13 12 9 8 5 7 7 8
8 8 9 9 6 5 5 7 9 10 12 10 8 6 5 5 5 5 5 4 5 6 6 7 7 7 7 7 6 6 6 6 6 6 6 6 7 7 7 7 6 5 5 5 5 5 4 4 3 2 1 1 2 3 6 2 1 1 1 1 2 3 3 3 4 4 5 6 5 4 4 6 7 8 8 11 12 12 11 12 12 11 10 9 8
9 9 8 7 7 8 9 11 12 12 10 9 9 8 7 6 6 6 5 4 5 5 6 6 6 7 7 7 7 7 7 6 6 6 6 6 7 8 7 6 6 6 4 5 6 5 4 4 3 2 1 1 4 5 5 3 2 2 2 1 2 3 3 3 4 4 5 4 6 6 4 4 5 6 6 6 8 11 12 12 12 12 13 13 13
9 9 9 8 8 10 12 12 9 10 10 8 7 8 8 8 8 6 6 6 5 6 6 6 5 6 7 7 7 8 7 7 6 6 5 6 8 8 7 6 6 5 5 6 5 5 5 4 4 4 4 3 3 6 7 7 7 7 7 5 3 3 3 4 4 4 5 5 5 5 5 5 5 8 7 6 6 7 9 10 10 10 9 9 10
8 8 9 10 9 9 11 11 9 6 6 6 7 8 7 7 8 7 7 6 7 6 7 6 5 4 5 6 7 7 7 6 6 5 6 8 8 8 6 5 5 6 6 5 5 5 5 4 4 4 4 3 3 8 10 10 10 9 10 7 4 4 4 4 4 5 5 5 5 5 6 6 5 5 6 6 6 6 7 6 6 5 6 8 10
9 8 8 10 12 12 8 6 7 9 8 9 6 8 8 8 8 9 7 8 7 8 7 7 7 5 5 5 6 7 8 6 6 6 7 8 8 7 6 5 6 5 5 4 4 5 4 4 4 4 3 3 4 9 8 9 9 9 10 7 3 3 3 3 4 4 4 4 5 5 5 6 6 5 6 8 8 8 8 8 8 8 8 8 8
9 10 11 10 8 7 8 6 5 8 8 8 8 8 9 8 7 8 8 7 8 7 7 7 7 6 6 5 7 7 7 6 7 7 8 8 7 6 6 4 4 5 4 4 4 4 4 3 3 3 2 2 3 9 7 8 9 9 9 4 3 3 3 3 3 4 4 4 4 4 5 5 6 6 9 13 12 10 8 9 11 10 9 9 8
6 4 6 6 7 8 9 9 8 9 10 9 9 9 10 10 8 7 8 8 8 8 7 7 7 6 6 6 6 8 7 7 7 8 8 7 7 6 5 3 6 5 4 4 3 2 2 2 2 2 3 3 3 5 8 8 8 8 5 3 3 2 3 3 3 4 4 4 4 5 5 6 6 5 8 12 14 14 9 11 12 13 12 12 11
3 4 3 3 3 4 6 10 9 7 8 9 9 11 11 11 10 9 9 8 8 8 7 7 7 6 6 6 6 7 8 8 8 8 8 6 6 5 5 3 6 4 4 2 1 2 1 1 1 1 3 3 3 6 9 8 8 8 5 3 3 3 3 3 3 3 4 4 5 9 8 5 5 5 9 15 17 13 10 11 12 13 15 14 12
2 4 5 4 4 6 7 6 8 9 7 8 8 10 10 10 10 10 9 10 9 9 9 9 7 6 6 6 6 6 7 8 8 7 7 7 6 5 4 4 4 3 1 0 1 1 2 2 1 2 5 4 4 6 8 8 8 9 6 4 4 3 3 3 4 4 4 5 4 5 7 7 7 9 16 16 19 14 10 11 11 13 14 15 13
4 4 5 6 6 7 5 7 8 7 7 8 8 8 7 8 7 6 8 8 8 8 7 7 7 7 6 6 5 7 7 8 8 7 6 6 5 5 5 5 4 3 3 4 3 3 3 2 1 2 2 4 5 4 4 7 9 11 11 6 5 3 4 5 5 5 6 4 3 4 4 10 14 16 17 19 18 19 12 11 11 11 13 15 13
4 5 5 6 4 5 7 6 5 7 7 7 8 9 8 7 8 8 7 6 6 7 8 8 7 7 7 7 5 6 8 7 6 7 6 5 5 5 5 5 4 3 4 3 3 2 2 1 1 3 6 5 4 3 3 8 10 11 12 8 3 5 4 5 6 6 5 6 6 5 4 10 16 18 18 19 19 19 18 11 9 10 10 15 18
4 5 6 6 6 6 7 6 4 6 7 7 8 9 7 8 8 7 6 5 7 7 8 8 8 7 7 7 7 6 6 6 5 6 7 6 4 5 5 4 3 3 3 3 3 3 3 2 3 5 5 4 4 5 3 6 10 11 11 11 5 4 7 6 6 6 6 5 6 7 6 10 17 19 20 20 21 19 20 10 9 15 22 23 15
4 4 4 7 7 7 6 5 4 4 5 6 9 9 8 8 9 6 5 6 7 7 8 8 8 8 7 7 6 6 6 5 5 5 6 7 5 5 4 3 3 3 3 4 4 3 3 4 4 5 4 4 4 3 4 5 10 11 11 10 12 9 13 6 6 7 7 7 6 7 7 13 20 20 20 20 19 20 15 9 17 20 19 21 17
3 4 5 6 8 7 7 5 4 4 4 5 9 10 8 9 8 4 6 6 8 7 8 8 8 7 8 7 6 6 6 5 5 5 6 6 5 4 4 3 3 3 4 5 5 4 4 3 3 4 4 4 3 1 4 8 8 11 10 12 13 14 13 8 7 5 6 7 7 7 11 20 20 20 19 18 18 16 10 17 19 20 20 17 10
6 5 5 5 9 9 8 6 5 4 3 4 5 11 10 10 5 5 5 7 8 8 8 8 8 7 7 6 6 6 6 5 5 5 6 6 5 4 5 4 4 4 5 5 4 3 3 3 3 4 3 3 2 2 2 7 10 10 11 12 14 14 14 14 8 5 6 7 12 19 21 20 19 18 18 17 13 12 16 17 18 18 15 8 9
5 4 5 6 7 8 8 8 6 5 5 4 4 8 13 7 6 5 6 7 8 9 9 8 7 7 7 7 9 7 6 5 5 5 5 4 5 4 5 4 4 5 4 4 3 3 4 4 4 4 2 1 2 2 3 4 5 6 7 12 14 14 14 14 12 9 14 17 17 18 20 18 14 13 11 9 9 12 17 17 15 14 10 11 10
6 5 7 8 8 8 8 7 6 3 6 6 7 7 7 7 6 5 6 7 8 9 9 8 8 7 6 6 7 7 6 5 5 5 5 4 4 4 5 5 4 4 5 4 3 3 4 4 3 3 1 1 2 3 3 3 4 5 6 8 9 9 12 12 9 7 9 9 12 12 11 15 13 17 15 13 13 13 12 10 9 10 10 9 8
5 5 5 6 7 8 8 7 7 5 6 6 7 7 5 5 4 4 5 7 8 8 10 9 8 7 6 6 7 7 7 6 5 4 5 5 4 4 5 5 4 4 4 4 3 3 3 3 2 1 3 2 2 3 3 4 5 6 6 6 7 6 7 6 7 8 8 9 9 11 11 7 7 8 9 8 8 8 8 10 10 9 8 9 10
6 5 5 7 6 8 7 8 7 6 5 6 6 5 5 5 3 3 4 6 8 7 8 8 6 7 7 5 6 5 5 4 5 5 4 4 4 4 5 5 5 3 2 3 3 4 4 3 3 3 3 1 1 1 2 7 8 10 8 7 6 6 6 6 9 15 10 8 6 6 7 8 8 10 10 10 9 9 9 10 11 10 9 9 9
4 5 5 6 6 8 9 8 7 6 6 6 6 5 4 4 3 2 3 6 8 8 8 7 6 6 6 6 5 5 5 4 5 4 5 5 5 5 4 4 4 5 7 7 5 3 4 4 4 3 2 2 1 2 8 11 11 11 12 12 12 13 13 10 12 15 9 6 6 6 6 8 8 9 9 9 10 10 10 11 10 13 11 11 11
6 7 6 7 7 8 9 9 7 6 6 6 6 5 4 3 3 2 3 5 6 8 7 6 6 5 5 5 5 5 4 5 4 4 5 6 5 4 7 8 7 6 6 7 8 8 8 7 6 2 3 5 6 9 10 10 10 10 11 12 13 13 13 13 14 9 5 6 6 7 7 7 7 7 8 8 9 9 10 9 11 10 9 10 10
Wind_Direction
199 184 184 183 179 178 175 166 171 171 174 176 174 174 179 174 166 179 182 174 174 178 178 172 179 177 178 192 197 183 174 165 179 187 183 193 196 198 191 179 167 170 179 179 198 203 210 173 143 152 153 167 182 199 194 199 200 202 204 191 187 188 201 109 75 94 69 306 254 265 279 240 242 230 240 250 251 256 248 243 248 254 247 242 241
170 178 171 171 172 172 169 169 169 173 185 177 181 180 180 179 177 175 177 182 182 183 177 179 179 184 181 192 184 181 170 171 177 189 193 194 193 199 200 192 191 185 187 199 206 206 195 168 161 162 171 195 203 201 204 205 194 195 174 180 190 195 218 159 153 109 298 228 283 315 287 261 236 225 233 239 233 231 226 230 238 239 243 237 230
184 184 168 164 167 171 172 178 184 184 183 183 184 178 179 183 183 175 178 183 185 180 174 183 178 179 178 182 173 178 173 163 163 178 186 180 182 185 187 192 195 201 192 199 203 200 186 176 185 176 182 178 194 223 223 221 182 183 176 190 191 328 226 168 178 182 217 125 122 347 288 318 339 296 249 247 234 232 220 226 232 234 240 236 227
192 187 183 176 172 175 174 180 185 179 181 186 183 184 183 184 182 179 178 181 184 183 174 172 167 164 158 153 172 158 186 176 173 188 136 159 176 173 185 189 188 197 181 175 183 179 177 187 191 194 197 191 202 207 201 216 202 197 190 214 181 224 210 236 195 199 187 111 302 214 263 1 302 270 269 254 208 220 210 228 226 236 241 236 221
193 192 186 182 182 187 185 187 180 186 186 186 184 186 187 187 183 179 176 179 181 177 169 156 146 148 137 76 81 78 73 132 153 166 192 210 154 167 176 178 187 195 197 182 186 197 192 193 196 200 196 195 194 205 206 210 207 206 201 205 201 219 241 228 218 191 202 201 189 160 309 268 231 280 333 265 185 202 229 228 230 235 239 236 231
188 192 189 187 189 190 186 181 187 196 197 193 188 187 180 182 178 175 170 171 175 174 168 155 158 158 156 153 163 153 158 162 179 182 190 200 203 166 175 174 175 180 182 184 183 192 196 197 201 202 197 195 193 205 219 217 206 202 205 205 218 215 228 241 245 206 219 217 225 230 210 249 273 249 8 299 358 209 226 216 228 231 228 236 237
192 175 175 177 184 176 186 187 190 194 203 188 180 180 176 173 176 175 172 168 166 168 168 153 157 165 173 176 174 171 170 192 170 170 168 195 183 161 149 144 162 171 182 188 185 190 202 202 201 202 206 201 195 197 203 206 205 205 193 195 216 218 205 237 246 216 183 252 232 239 253 249 201 286 264 323 297 326 307 245 248 230 226 225 236
193 201 192 182 178 180 186 190 188 194 184 177 174 174 174 172 170 172 165 164 164 163 167 164 163 166 163 167 173 175 175 183 171 157 141 139 159 196 220 244 190 159 166 177 183 177 187 208 213 210 192 178 166 191 206 207 204 209 200 209 210 198 195 214 236 220 194 242 194 232 246 258 232 229 244 241 284 292 280 281 244 247 220 230 234
190 194 203 202 187 190 178 181 187 171 169 175 177 174 165 160 158 159 160 159 162 160 164 164 159 162 159 156 169 185 166 178 170 163 163 174 179 184 194 188 142 142 150 158 169 180 187 201 206 209 209 208 193 205 206 202 207 211 209 207 208 212 210 228 236 236 211 241 159 232 232 237 242 236 231 166 237 266 276 266 274 266 247 262 251
169 179 191 200 200 187 182 158 162 177 164 161 162 160 160 157 160 161 162 156 159 158 159 160 153 149 154 162 169 179 168 186 168 166 169 168 182 165 149 147 152 143 155 143 165 181 163 179 189 194 195 200 192 205 201 205 210 212 207 204 203 212 203 205 222 237 238 247 243 208 194 242 256 261 225 229 248 225 262 270 277 283 282 259 225
156 147 147 132 130 141 124 144 149 131 140 145 158 165 166 166 164 167 164 153 156 159 158 163 153 155 160 167 171 177 177 172 159 158 156 154 169 164 163 169 159 159 168 203 193 201 191 173 189 195 179 165 173 179 197 194 204 211 215 207 205 206 209 215 224 235 244 262 261 236 237 216 235 239 237 219 228 248 263 262 263 252 259 279 260
163 162 181 129 116 116 126 136 137 143 146 155 164 163 163 162 161 160 158 155 157 156 154 161 157 159 161 168 172 176 175 169 173 173 169 173 176 175 173 177 189 195 202 205 200 189 183 193 193 186 186 176 165 164 166 172 175 186 203 214 221 215 216 212 221 229 230 248 259 254 254 254 252 251 256 243 231 246 243 268 271 282 268 250 272
163 169 173 165 173 174 187 163 148 162 169 165 168 167 163 163 164 159 160 153 155 154 154 160 162 171 167 168 173 169 169 170 173 174 178 178 178 181 183 195 194 198 205 195 198 181 181 188 192 194 198 189 169 162 170 170 174 183 197 203 209 216 215 215 221 224 223 237 246 248 257 260 259 259 253 248 252 260 256 274 266 243 268 282 281
204 188 170 178 180 186 194 171 167 168 170 167 166 164 166 166 167 159 158 151 149 152 154 161 175 177 166 166 176 174 171 172 178 178 182 180 175 186 196 193 189 192 187 192 195 184 176 184 187 196 185 167 169 175 172 174 171 174 176 193 204 205 199 214 222 226 236 247 250 261 262 265 266 258 253 250 256 264 267 269 289 273 261 279 278
185 184 177 184 186 178 183 171 168 171 169 166 166 167 162 167 165 157 151 151 153 162 161 171 176 179 171 167 175 178 173 170 176 183 189 179 176 178 186 176 161 177 165 176 142 134 131 99 78 104 156 161 171 170 167 171 178 177 184 181 185 184 192 186 190 207 226 234 238 237 250 259 264 259 251 253 244 244 253 265 276 290 285 266 280
177 187 192 189 173 171 164 164 167 168 165 162 165 166 166 170 162 160 158 156 160 168 171 173 172 175 173 170 178 170 168 163 164 166 167 151 144 141 148 139 138 122 107 100 91 102 90 79 57 21 317 167 158 162 170 173 173 174 181 180 194 182 186 188 203 202 221 230 238 248 256 258 256 256 253 253 249 251 254 261 261 267 284 292 283
172 180 178 163 148 157 163 164 160 158 161 166 168 167 167 162 157 156 158 158 165 172 166 171 170 169 179 172 171 163 160 164 165 157 142 121 119 121 133 151 120 114 107 106 101 89 93 96 83 39 27 40 137 156 153 165 174 176 178 181 194 197 185 192 185 187 214 230 245 244 248 260 259 253 250 242 244 245 243 248 246 253 266 279 293
173 175 168 162 163 159 153 149 152 155 157 158 163 166 167 163 159 157 160 163 168 168 169 174 169 167 171 168 164 154 152 152 147 148 135 127 123 125 124 127 142 132 117 105 96 96 96 104 120 154 8 27 38 61 78 70 98 144 171 178 192 176 175 161 184 214 245 251 258 269 262 265 266 266 258 252 248 248 250 246 249 253 244 261 276
164 168 157 161 162 156 147 150 149 149 153 154 156 158 157 157 156 160 164 166 164 165 160 157 156 156 159 157 151 143 143 140 135 137 136 142 152 150 153 157 129 118 113 118 128 127 103 90 102 111 89 70 54 53 57 63 79 60 41 57 80 118 128 212 241 214 249 254 264 267 267 268 270 266 268 267 263 260 255 249 255 250 248 251 267
182 177 166 160 156 153 151 143 143 148 147 148 145 141 152 154 143 149 150 149 153 154 152 150 149 144 145 137 137 137 142 145 144 137 141 145 154 153 152 131 149 138 144 139 131 117 118 112 138 132 103 92 74 51 59 55 53 54 55 46 58 71 30 294 289 278 279 271 271 268 261 260 267 271 273 272 269 263 256 259 257 255 260 250 264
189 176 164 155 145 138 135 135 127 116 120 133 147 149 147 141 142 150 152 153 152 152 145 148 139 143 145 145 146 142 142 138 134 134 134 140 141 142 142 149 124 125 118 111 110 120 113 123 107 100 112 106 93 61 48 52 51 44 32 42 11 17 323 303 296 290 286 284 283 281 278 272 276 276 269 273 272 269 269 263 257 261 260 256 255
178 170 156 147 135 129 115 113 119 121 133 139 152 143 148 149 145 142 142 152 150 153 152 148 145 147 143 143 143 138 136 132 135 137 136 138 133 131 125 109 125 131 115 110 112 109 108 109 93 74 76 79 85 94 91 82 62 37 351 41 238 256 264 274 275 270 267 265 283 289 291 287 281 274 278 275 266 265 261 258 258 247 253 261 233
176 158 146 140 144 149 149 150 153 153 156 154 155 156 161 159 151 153 149 159 158 157 148 148 148 150 146 141 136 137 136 137 134 137 129 131 128 122 121 128 132 126 107 116 128 134 152 132 117 86 65 56 56 60 50 56 47 43 32 12 15 356 300 287 289 279 271 254 260 267 275 283 284 282 276 272 273 269 264 261 261 252 256 251 248
140 129 123 132 139 139 141 153 160 164 167 170 170 160 164 163 159 154 160 161 156 153 146 144 143 139 134 129 133 138 136 140 140 143 137 137 128 127 124 124 123 114 110 99 99 110 96 106 97 84 79 51 40 39 25 31 25 31 26 5 352 339 329 334 328 317 314 303 283 283 276 271 269 277 280 280 277 271 270 266 262 261 256 262 254
128 131 135 132 146 166 176 175 178 173 168 169 176 175 167 166 168 170 164 151 142 143 140 143 141 133 131 132 140 145 145 145 143 139 138 131 128 125 120 126 115 109 109 106 97 92 94 97 107 120 126 144 164 167 155 100 26 44 43 28 7 355 338 323 316 310 307 300 296 291 292 287 281 276 277 276 273 272 270 269 268 265 261 258 255
145 144 152 180 191 186 181 186 182 181 179 180 178 175 174 173 175 160 146 140 146 139 143 141 139 134 136 141 151 153 155 149 139 135 136 134 131 131 130 120 124 121 106 105 117 115 124 123 123 127 120 99 84 79 56 45 26 348 319 278 260 253 245 248 271 278 282 281 280 281 281 278 276 277 279 280 279 276 275 270 271 271 267 266 265
173 180 189 181 186 205 204 191 190 181 181 180 177 176 171 164 162 153 149 147 154 147 146 139 135 132 136 148 156 158 148 139 135 133 129 125 126 134 127 118 105 107 113 112 112 101 90 90 78 73 67 68 62 76 95 83 60 34 13 11 326 313 286 268 252 258 267 271 272 272 277 275 272 266 268 271 274 275 271 269 267 274 274 277 276
182 180 190 204 212 210 206 200 179 174 169 171 174 171 170 169 167 157 149 149 155 149 144 138 134 131 137 145 146 144 132 125 124 124 124 126 128 124 120 115 108 109 111 116 115 108 100 91 83 83 66 75 68 57 46 41 38 34 23 354 320 293 294 300 296 290 279 274 271 273 273 273 267 265 261 265 263 270 269 274 274 278 285 288 287
192 209 208 211 212 212 203 186 180 161 168 173 171 167 158 152 154 155 149 160 157 145 140 135 131 136 141 137 130 123 119 119 123 124 125 129 130 128 118 109 105 108 110 108 104 99 93 86 91 100 83 87 102 112 94 79 51 6 12 349 334 330 325 314 301 291 281 274 276 272 272 272 268 270 269 269 269 266 276 281 278 276 283 280 278
211 213 217 219 221 208 192 181 175 178 182 185 182 180 173 166 165 161 152 162 141 146 142 139 137 138 133 133 132 128 127 126 124 129 133 131 129 120 111 105 106 109 103 99 96 96 92 97 89 83 96 105 131 104 93 80 92 154 313 305 307 303 294 286 283 290 290 281 271 269 272 270 273 275 276 277 278 276 269 258 263 269 273 277 280
222 227 226 225 219 204 181 184 194 194 197 191 183 171 159 152 152 151 149 153 134 143 140 140 138 135 135 136 135 135 131 130 134 129 130 128 123 114 106 105 102 100 101 101 97 84 83 84 92 91 79 101 107 92 100 94 69 310 243 263 281 285 283 280 277 274 283 289 290 285 278 278 277 280 281 276 278 278 277 275 270 263 254 256 279
223 226 229 226 217 202 198 201 203 202 193 185 177 171 157 157 145 145 148 135 129 134 135 132 133 136 141 143 141 137 132 134 129 127 130 130 114 102 98 99 96 89 88 85 80 83 81 79 68 62 78 97 86 102 97 82 49 29 355 294 278 277 282 280 278 277 278 287 291 296 295 295 291 290 296 302 301 300 298 295 289 283 277 268 255
224 222 220 221 216 212 210 212 204 198 194 190 162 150 163 156 146 147 126 125 126 123 121 125 136 142 146 144 142 136 132 127 127 130 132 111 99 92 89 85 85 85 79 79 79 78 77 67 73 66 51 65 101 71 56 42 29 19 6 356 327 298 298 291 290 284 282 284 287 293 302 297 295 301 305 303 304 303 301 297 295 295 287 275 275
226 217 211 214 216 217 216 211 198 177 163 153 156 151 146 137 133 129 128 130 127 124 126 130 128 138 144 142 138 131 125 124 126 124 113 97 91 91 93 93 86 75 79 83 81 83 76 64 63 65 51 44 43 52 39 26 17 11 2 354 326 312 294 285 287 288 292 301 301 307 306 305 303 308 304 307 307 303 304 304 298 288 284 284 284
225 221 217 212 210 213 203 172 161 155 145 135 136 137 130 128 137 134 136 132 132 132 135 140 139 143 143 139 129 124 122 121 117 111 98 90 92 91 82 80 88 95 96 98 95 86 83 75 58 58 55 37 77 63 46 28 16 11 4 354 323 311 310 303 298 296 299 299 301 301 301 298 304 307 304 307 311 307 305 301 297 292 286 285 281
227 215 220 216 215 199 179 169 139 134 143 141 143 138 131 135 134 137 137 137 138 139 141 142 143 146 144 139 131 127 122 119 115 103 97 95 91 94 95 87 83 82 79 81 64 83 92 92 100 90 90 63 69 61 44 29 18 12 6 336 330 316 304 302 303 309 306 307 308 309 314 313 313 314 309 312 312 319 319 316 310 305 302 295 287
239 211 220 205 174 170 173 149 153 152 150 153 147 141 136 137 139 144 140 141 141 143 149 146 142 140 136 134 134 130 125 119 115 106 102 103 104 94 82 80 89 81 80 79 87 94 107 103 103 110 101 79 57 58 50 27 20 17 5 340 330 332 324 326 321 319 320 320 323 323 319 313 309 311 311 327 343 348 333 326 318 311 305 299 293
109 58 62 80 116 118 136 147 150 152 153 149 152 148 145 147 151 150 147 149 147 149 147 141 139 135 128 126 129 130 126 121 113 112 111 106 101 94 89 84 100 92 83 87 93 68 57 129 119 98 106 94 65 69 52 29 31 27 13 351 338 353 337 335 329 310 315 316 307 307 309 311 319 315 328 338 336 337 322 314 308 305 306 304 303
126 144 125 114 121 135 139 129 142 155 164 155 152 149 149 154 156 155 152 150 153 149 148 142 136 126 117 116 121 119 119 116 111 109 112 111 108 109 106 90 85 96 117 148 104 98 73 50 78 126 100 89 67 74 51 37 32 30 29 6 358 355 332 334 327 316 306 302 303 310 311 318 327 325 328 330 328 326 314 311 312 309 307 308 310
65 60 117 128 122 108 117 144 161 165 149 147 141 140 139 141 145 142 146 150 148 142 131 121 116 112 108 104 108 110 105 110 113 110 102 106 108 93 91 90 82 93 86 72 65 69 64 28 25 111 108 101 73 64 63 37 33 31 28 18 345 357 349 341 331 324 325 323 318 312 311 331 330 328 326 325 323 323 319 314 314 310 307 305 311
103 109 105 102 97 121 142 149 145 139 140 140 137 136 139 140 139 136 138 133 126 120 117 114 110 107 104 100 93 99 106 98 104 115 112 99 91 100 93 90 90 82 94 72 74 68 76 45 91 103 82 84 96 77 29 40 36 30 16 12 348 354 339 339 333 331 330 326 324 324 310 323 326 325 324 324 324 322 320 313 308 297 296 304 311
92 109 109 105 96 98 95 87 105 126 130 134 132 130 131 134 129 125 125 122 113 112 111 111 110 105 102 98 98 93 89 102 102 108 108 98 93 92 95 97 89 89 94 89 72 79 79 65 63 93 92 93 99 91 53 33 40 22 10 5 4 347 348 342 334 328 325 322 318 315 314 317 323 325 324 323 320 319 319 315 292 304 312 315 309
113 90 102 119 111 103 97 102 94 109 125 136 132 132 135 129 124 128 120 111 108 109 109 109 108 104 101 100 95 97 97 95 99 101 106 103 99 97 96 104 101 98 105 97 95 71 64 67 87 98 101 92 64 36 66 54 32 17 360 358 357 354 350 348 335 326 326 315 309 309 304 316 324 323 321 320 320 320 318 301 309 314 309 304 301
108 130 135 116 112 111 105 87 77 82 112 137 141 138 137 128 127 119 108 104 105 109 112 110 108 106 105 100 98 92 89 85 91 94 92 97 92 98 105 102 85 92 99 91 80 58 70 107 107 102 89 73 49 20 52 59 29 4 353 353 353 352 351 345 341 320 314 310 309 312 318 322 321 320 319 320 321 320 308 310 311 307 306 307 304
134 135 124 123 130 129 116 91 67 65 60 97 133 135 129 126 127 117 117 118 118 117 115 112 111 110 106 104 94 89 88 83 77 84 96 96 93 96 100 86 82 84 85 92 92 115 126 107 94 89 68 48 2 45 34 40 13 350 351 351 351 350 349 347 339 324 315 316 318 319 320 321 322 322 323 326 324 319 319 316 315 317 319 320 322
115 112 117 118 115 114 117 108 73 48 58 53 81 129 134 132 120 117 121 124 126 122 116 115 113 110 110 112 104 93 85 79 81 78 82 89 102 100 103 97 91 91 94 100 102 115 120 109 100 90 82 61 358 55 38 26 343 340 345 350 349 349 346 342 335 322 322 322 322 324 322 321 322 325 326 332 332 327 325 323 327 336 333 327 320
149 150 131 129 131 127 126 121 101 54 61 63 72 67 94 117 120 125 126 128 124 122 119 118 116 114 110 111 109 112 106 89 81 82 81 79 76 85 93 93 93 96 97 103 115 114 96 96 97 97 108 87 47 39 24 347 333 346 348 348 347 342 338 333 329 320 323 323 325 326 320 324 319 326 332 329 326 324 327 330 339 336 318 307 312
135 140 136 128 133 135 131 122 109 88 77 80 80 83 84 97 106 115 129 126 127 131 129 128 124 120 112 109 105 106 107 104 91 87 94 89 81 80 91 94 90 104 125 130 116 101 102 103 102 93 87 60 49 31 345 341 353 355 350 347 338 326 325 326 326 324 322 324 322 320 321 324 327 335 334 336 333 331 330 336 329 320 313 308 304
136 144 141 144 138 130 128 116 107 98 93 85 84 82 69 73 77 88 120 124 122 115 111 111 111 109 105 101 100 97 100 96 98 87 72 69 82 84 102 102 93 65 87 124 118 105 102 76 89 70 82 42 36 337 320 1 353 351 343 336 328 327 326 326 326 327 326 325 317 321 328 337 342 340 341 337 338 341 339 331 324 320 319 322 323
125 118 117 112 119 127 124 117 112 108 102 99 88 81 72 57 54 36 89 123 122 115 108 103 102 102 105 104 103 97 95 93 100 101 107 100 100 86 78 101 96 106 107 100 108 103 89 86 80 29 86 121 229 306 2 0 352 345 339 336 334 333 334 329 330 337 338 327 327 339 341 346 343 346 341 342 342 339 332 333 331 329 325 317 311
139 128 126 127 126 123 118 117 120 116 106 104 98 81 79 74 57 43 90 121 125 118 111 108 107 104 107 111 109 107 102 99 101 103 117 121 128 116 108 99 100 104 107 105 96 90 84 81 92 94 21 37 32 16 4 356 349 343 342 343 341 340 339 344 347 351 1 346 353 348 345 343 343 341 340 343 339 337 334 327 323 319 315 316 319